This is the latest recevied weather packets stored in our database for station/object F5LKO-13. If no packets are shown the sender has not sent any weather packets the latest 10 day(s).
| Time | Temp. | Humidity | Pressure | Rain* | Wind** | Luminosity | Snow |
|---|---|---|---|---|---|---|---|
| 1777563850 | 25.56° C | 99% | 1018.7 hPa | 0 mm | - | 7 W/m² | - |
| 1777563544 | 25.56° C | 99% | 1018.7 hPa | 0 mm | - | 17 W/m² | - |
| 1777563247 | 25.56° C | 99% | 1018.7 hPa | 0 mm | - | 16 W/m² | - |
| 1777562932 | 25.56° C | 99% | 1018.7 hPa | 0 mm | - | 17 W/m² | - |
| 1777562625 | 25.56° C | 99% | 1018.6 hPa | 0 mm | - | 19 W/m² | - |
| 1777562320 | 25.56° C | 99% | 1018.6 hPa | 0 mm | - | 20 W/m² | - |
| 1777562014 | 25.56° C | 99% | 1018.6 hPa | 0 mm | - | 22 W/m² | - |
| 1777561708 | 25° C | 99% | 1018.8 hPa | 0 mm | - | 24 W/m² | - |
| 1777561410 | 25° C | 99% | 1018.7 hPa | 0 mm | - | 26 W/m² | - |
| 1777561094 | 25.56° C | 99% | 1018.7 hPa | 0 mm | - | 28 W/m² | - |
| 1777560789 | 25° C | 99% | 1018.6 hPa | 0 mm | - | 30 W/m² | - |
| 1777560483 | 25° C | 99% | 1018.5 hPa | 0 mm | - | 32 W/m² | - |
| 1777560177 | 25° C | 99% | 1018.5 hPa | 0 mm | - | 35 W/m² | - |
| 1777559871 | 25° C | 99% | 1018.4 hPa | 0 mm | - | 36 W/m² | - |
| 1777559573 | 25.56° C | 99% | 1018.4 hPa | 0 mm | - | 39 W/m² | - |
| 1777559258 | 25.56° C | 99% | 1018.4 hPa | 0 mm | - | 41 W/m² | - |
| 1777558952 | 25.56° C | 99% | 1018.4 hPa | 0 mm | - | 44 W/m² | - |
| 1777558646 | 26.11° C | 99% | 1018.4 hPa | 0 mm | - | 47 W/m² | - |
| 1777558340 | 26.11° C | 99% | 1018.4 hPa | 0 mm | - | 49 W/m² | - |
| 1777558034 | 26.67° C | 99% | 1018.4 hPa | 0 mm | - | 52 W/m² | - |
| 1777557736 | 26.67° C | 99% | 1018.4 hPa | 0 mm | - | 54 W/m² | - |
| 1777557420 | 26.67° C | 99% | 1018.4 hPa | 0 mm | - | 56 W/m² | - |
| 1777557114 | 26.11° C | 99% | 1018.3 hPa | 0 mm | - | 63 W/m² | - |
| 1777556808 | 25.56° C | 99% | 1018.2 hPa | 0 mm | - | 63 W/m² | - |
| 1777556503 | 26.11° C | 99% | 1018.3 hPa | 0 mm | - | 64 W/m² | - |
* Rain latest hour (hover to see other rain measurements)
** Current wind speed in m/s (hover to see current wind gust speed)